Time,TemperatureF,DewpointF,PressureIn,WindDirection,WindDirectionDegrees,WindSpeedMPH,WindSpeedGustMPH,Humidity,HourlyPrecipIn,Conditions,Clouds,dailyrainin,SoftwareType,DateUTC
2013-06-07 00:09:00,68.6,65.0,29.88,WNW,284,0.0,-999.0,87,-99.99,,,0.00,weatherlink.com 1.10,2013-06-07 05:09:00,
2013-06-07 00:24:00,68.1,65.0,29.88,WNW,284,0.0,-999.0,88,-99.99,,,0.00,weatherlink.com 1.10,2013-06-07 05:24:00,
2013-06-07 00:39:00,67.9,64.0,29.89,WNW,284,0.0,-999.0,87,-99.99,,,0.00,weatherlink.com 1.10,2013-06-07 05:39:00,
2013-06-07 00:54:00,66.7,63.0,29.89,WNW,284,0.0,-999.0,88,-99.99,,,0.00,weatherlink.com 1.10,2013-06-07 05:54:00,
2013-06-07 01:09:00,66.3,63.0,29.88,WNW,284,0.0,-999.0,88,-99.99,,,0.00,weatherlink.com 1.10,2013-06-07 06:09:00,
2013-06-07 01:24:00,67.0,63.0,29.88,WNW,284,0.0,-999.0,88,-99.99,,,0.00,weatherlink.com 1.10,2013-06-07 06:24:00,
2013-06-07 01:39:00,66.0,62.0,29.88,WNW,284,0.0,-999.0,88,-99.99,,,0.00,weatherlink.com 1.10,2013-06-07 06:39:00,
2013-06-07 01:54:00,65.7,62.0,29.88,WNW,284,0.0,-999.0,88,-99.99,,,0.00,weatherlink.com 1.10,2013-06-07 06:54:00,
2013-06-07 02:09:00,65.5,62.0,29.89,WNW,284,0.0,-999.0,88,-99.99,,,0.00,weatherlink.com 1.10,2013-06-07 07:09:00,
2013-06-07 02:24:00,65.2,62.0,29.88,WNW,284,0.0,-999.0,89,-99.99,,,0.00,weatherlink.com 1.10,2013-06-07 07:24:00,
2013-06-07 02:39:00,65.4,62.0,29.89,WNW,284,0.0,-999.0,89,-99.99,,,0.00,weatherlink.com 1.10,2013-06-07 07:39:00,
2013-06-07 02:54:00,66.1,63.0,29.89,WNW,284,0.0,-999.0,89,-99.99,,,0.00,weatherlink.com 1.10,2013-06-07 07:54:00,
2013-06-07 03:09:00,65.6,62.0,29.89,WNW,284,0.0,-999.0,89,-99.99,,,0.00,weatherlink.com 1.10,2013-06-07 08:09:00,
2013-06-07 03:24:00,66.1,63.0,29.88,WNW,284,0.0,-999.0,89,-99.99,,,0.00,weatherlink.com 1.10,2013-06-07 08:24:00,
2013-06-07 03:39:00,65.4,62.0,29.88,WNW,284,0.0,-999.0,89,-99.99,,,0.00,weatherlink.com 1.10,2013-06-07 08:39:00,
2013-06-07 03:55:00,65.2,62.0,29.89,WNW,284,0.0,-999.0,89,-99.99,,,0.00,weatherlink.com 1.10,2013-06-07 08:55:00,
2013-06-07 04:10:00,64.9,62.0,29.89,WNW,284,0.0,-999.0,89,-99.99,,,0.00,weatherlink.com 1.10,2013-06-07 09:10:00,
2013-06-07 04:25:00,65.9,63.0,29.89,WNW,284,0.0,-999.0,90,-99.99,,,0.00,weatherlink.com 1.10,2013-06-07 09:25:00,
2013-06-07 04:40:00,66.0,63.0,29.89,WNW,284,0.0,-999.0,90,-99.99,,,0.00,weatherlink.com 1.10,2013-06-07 09:40:00,
2013-06-07 04:55:00,65.7,63.0,29.90,WNW,284,0.0,-999.0,90,-99.99,,,0.00,weatherlink.com 1.10,2013-06-07 09:55:00,
2013-06-07 05:10:00,65.7,63.0,29.90,WNW,284,0.0,-999.0,90,-99.99,,,0.00,weatherlink.com 1.10,2013-06-07 10:10:00,
2013-06-07 05:25:00,65.5,63.0,29.90,WNW,284,0.0,-999.0,90,-99.99,,,0.00,weatherlink.com 1.10,2013-06-07 10:25:00,
2013-06-07 05:40:00,65.4,63.0,29.90,WNW,284,0.0,-999.0,90,-99.99,,,0.00,weatherlink.com 1.10,2013-06-07 10:40:00,
2013-06-07 05:55:00,65.2,62.0,29.90,WNW,284,0.0,-999.0,90,-99.99,,,0.00,weatherlink.com 1.10,2013-06-07 10:55:00,
2013-06-07 06:10:00,65.6,63.0,29.89,WNW,284,0.0,-999.0,90,-99.99,,,0.00,weatherlink.com 1.10,2013-06-07 11:10:00,
2013-06-07 06:25:00,65.6,63.0,29.89,WNW,284,0.0,-999.0,90,-99.99,,,0.00,weatherlink.com 1.10,2013-06-07 11:25:00,
2013-06-07 06:40:00,65.5,63.0,29.90,WNW,284,0.0,-999.0,90,-99.99,,,0.00,weatherlink.com 1.10,2013-06-07 11:40:00,
2013-06-07 06:55:00,65.7,63.0,29.90,WNW,284,0.0,-999.0,90,-99.99,,,0.00,weatherlink.com 1.10,2013-06-07 11:55:00,
2013-06-07 07:10:00,65.9,63.0,29.90,WNW,289,0.0,-999.0,90,-99.99,,,0.00,weatherlink.com 1.10,2013-06-07 12:10:00,
2013-06-07 07:25:00,66.3,63.0,29.90,WNW,293,0.0,-999.0,90,-99.99,,,0.00,weatherlink.com 1.10,2013-06-07 12:25:00,
2013-06-07 07:40:00,66.7,64.0,29.91,WNW,299,0.0,-999.0,90,-99.99,,,0.00,weatherlink.com 1.10,2013-06-07 12:40:00,
2013-06-07 07:55:00,67.5,64.0,29.91,NNW,334,2.0,-999.0,89,-99.99,,,0.00,weatherlink.com 1.10,2013-06-07 12:55:00,
2013-06-07 08:10:00,68.3,65.0,29.92,North,349,4.0,-999.0,88,-99.99,,,0.00,weatherlink.com 1.10,2013-06-07 13:10:00,
2013-06-07 08:25:00,69.3,65.0,29.92,NNW,330,4.0,-999.0,86,-99.99,,,0.00,weatherlink.com 1.10,2013-06-07 13:25:00,
2013-06-07 08:40:00,69.9,65.0,29.93,NNW,342,4.0,-999.0,84,-99.99,,,0.00,weatherlink.com 1.10,2013-06-07 13:40:00,
2013-06-07 08:55:00,70.9,66.0,29.94,North,360,4.0,-999.0,83,-99.99,,,0.00,weatherlink.com 1.10,2013-06-07 13:55:00,
2013-06-07 09:10:00,71.7,65.0,29.94,NNW,342,4.0,-999.0,80,-99.99,,,0.00,weatherlink.com 1.10,2013-06-07 14:10:00,
2013-06-07 09:25:00,72.2,65.0,29.95,NNE,26,0.0,-999.0,79,-99.99,,,0.00,weatherlink.com 1.10,2013-06-07 14:25:00,
2013-06-07 09:40:00,73.0,65.0,29.95,North,355,0.0,-999.0,75,-99.99,,,0.00,weatherlink.com 1.10,2013-06-07 14:40:00,
2013-06-07 09:55:00,74.4,66.0,29.95,NNW,329,6.0,-999.0,74,-99.99,,,0.00,weatherlink.com 1.10,2013-06-07 14:55:00,
2013-06-07 10:10:00,74.8,65.0,29.95,NNW,328,3.0,-999.0,71,-99.99,,,0.00,weatherlink.com 1.10,2013-06-07 15:10:00,
2013-06-07 10:25:00,75.2,65.0,29.95,WNW,286,0.0,-999.0,70,-99.99,,,0.00,weatherlink.com 1.10,2013-06-07 15:25:00,
2013-06-07 10:40:00,75.7,64.0,29.95,NNW,341,0.0,-999.0,67,-99.99,,,0.00,weatherlink.com 1.10,2013-06-07 15:40:00,
2013-06-07 10:55:00,77.0,65.0,29.95,West,276,1.0,-999.0,66,-99.99,,,0.00,weatherlink.com 1.10,2013-06-07 15:55:00,
2013-06-07 11:10:00,77.2,64.0,29.96,NW,326,0.0,-999.0,64,-99.99,,,0.00,weatherlink.com 1.10,2013-06-07 16:10:00,
2013-06-07 11:25:00,77.1,62.0,29.96,NW,323,2.0,-999.0,60,-99.99,,,0.00,weatherlink.com 1.10,2013-06-07 16:25:00,
2013-06-07 11:40:00,78.0,64.0,29.95,WNW,294,2.0,-999.0,62,-99.99,,,0.00,weatherlink.com 1.10,2013-06-07 16:40:00,
2013-06-07 11:56:00,77.8,63.0,29.94,North,355,0.0,-999.0,61,-99.99,,,0.00,weatherlink.com 1.10,2013-06-07 16:56:00,
2013-06-07 12:11:00,78.7,64.0,29.94,NW,304,2.0,-999.0,61,-99.99,,,0.00,weatherlink.com 1.10,2013-06-07 17:11:00,
2013-06-07 12:26:00,79.4,64.0,29.93,WNW,300,0.0,-999.0,59,-99.99,,,0.00,weatherlink.com 1.10,2013-06-07 17:26:00,
2013-06-07 12:41:00,79.1,63.0,29.93,NW,325,0.0,-999.0,58,-99.99,,,0.00,weatherlink.com 1.10,2013-06-07 17:41:00,
2013-06-07 12:56:00,79.4,63.0,29.93,NW,325,0.0,-999.0,57,-99.99,,,0.00,weatherlink.com 1.10,2013-06-07 17:56:00,
2013-06-07 13:11:00,79.5,62.0,29.92,NNW,346,4.0,-999.0,56,-99.99,,,0.00,weatherlink.com 1.10,2013-06-07 18:11:00,
2013-06-07 13:26:00,80.9,62.0,29.91,WNW,290,1.0,-999.0,53,-99.99,,,0.00,weatherlink.com 1.10,2013-06-07 18:26:00,
2013-06-07 13:41:00,80.9,61.0,29.91,WNW,296,10.0,-999.0,51,-99.99,,,0.00,weatherlink.com 1.10,2013-06-07 18:41:00,
2013-06-07 13:56:00,81.0,62.0,29.91,NNE,28,2.0,-999.0,52,-99.99,,,0.00,weatherlink.com 1.10,2013-06-07 18:56:00,
2013-06-07 14:11:00,81.3,61.0,29.91,NW,309,0.0,-999.0,50,-99.99,,,0.00,weatherlink.com 1.10,2013-06-07 19:11:00,
2013-06-07 14:41:00,82.0,61.0,29.90,NNW,339,4.0,-999.0,49,-99.99,,,0.00,weatherlink.com 1.10,2013-06-07 19:41:00,
2013-06-07 14:56:00,82.3,61.0,29.90,WSW,249,0.0,-999.0,49,-99.99,,,0.00,weatherlink.com 1.10,2013-06-07 19:56:00,
2013-06-07 15:11:00,82.6,61.0,29.90,West,281,4.0,-999.0,48,-99.99,,,0.00,weatherlink.com 1.10,2013-06-07 20:11:00,
2013-06-07 15:26:00,82.5,60.0,29.89,North,355,0.0,-999.0,46,-99.99,,,0.00,weatherlink.com 1.10,2013-06-07 20:26:00,
2013-06-07 15:41:00,83.3,62.0,29.89,NNW,340,4.0,-999.0,49,-99.99,,,0.00,weatherlink.com 1.10,2013-06-07 20:41:00,
2013-06-07 15:56:00,83.0,60.0,29.89,NNW,346,6.0,-999.0,46,-99.99,,,0.00,weatherlink.com 1.10,2013-06-07 20:56:00,
2013-06-07 16:56:00,82.2,59.0,29.89,WNW,296,0.0,-999.0,46,-99.99,,,0.00,weatherlink.com 1.10,2013-06-07 21:56:00,
2013-06-07 17:26:00,81.8,60.0,29.88,North,355,0.0,-999.0,47,-99.99,,,0.00,weatherlink.com 1.10,2013-06-07 22:26:00,
2013-06-07 17:41:00,81.4,59.0,29.87,WNW,298,0.0,-999.0,47,-99.99,,,0.00,weatherlink.com 1.10,2013-06-07 22:41:00,
2013-06-07 18:26:00,79.9,59.0,29.86,NNW,345,0.0,-999.0,49,-99.99,,,0.00,weatherlink.com 1.10,2013-06-07 23:26:00,
2013-06-07 18:56:00,79.8,61.0,29.86,NNW,345,0.0,-999.0,52,-99.99,,,0.00,weatherlink.com 1.10,2013-06-07 23:56:00,
2013-06-07 19:11:00,79.3,61.0,29.85,NNW,345,0.0,-999.0,53,-99.99,,,0.00,weatherlink.com 1.10,2013-06-08 00:11:00,
2013-06-07 19:26:00,79.3,62.0,29.86,NNW,345,0.0,-999.0,56,-99.99,,,0.00,weatherlink.com 1.10,2013-06-08 00:26:00,
2013-06-07 19:41:00,78.5,61.0,29.86,NNW,345,0.0,-999.0,56,-99.99,,,0.00,weatherlink.com 1.10,2013-06-08 00:41:00,
2013-06-07 19:56:00,77.6,62.0,29.85,NNW,345,0.0,-999.0,59,-99.99,,,0.00,weatherlink.com 1.10,2013-06-08 00:56:00,
2013-06-07 20:11:00,76.3,62.0,29.86,NNW,345,0.0,-999.0,62,-99.99,,,0.00,weatherlink.com 1.10,2013-06-08 01:11:00,
2013-06-07 20:26:00,75.1,61.0,29.85,NNW,345,0.0,-999.0,62,-99.99,,,0.00,weatherlink.com 1.10,2013-06-08 01:26:00,
2013-06-07 20:56:00,72.2,60.0,29.86,NNW,345,0.0,-999.0,65,-99.99,,,0.00,weatherlink.com 1.10,2013-06-08 01:56:00,
2013-06-07 21:11:00,71.0,59.0,29.87,NNW,345,0.0,-999.0,67,-99.99,,,0.00,weatherlink.com 1.10,2013-06-08 02:11:00,
2013-06-07 21:41:00,70.7,60.0,29.88,NNW,344,0.0,-999.0,69,-99.99,,,0.00,weatherlink.com 1.10,2013-06-08 02:41:00,
2013-06-07 21:56:00,69.3,59.0,29.89,NNW,344,0.0,-999.0,70,-99.99,,,0.00,weatherlink.com 1.10,2013-06-08 02:56:00,
2013-06-07 22:11:00,69.1,59.0,29.89,NNW,344,0.0,-999.0,71,-99.99,,,0.00,weatherlink.com 1.10,2013-06-08 03:11:00,
2013-06-07 22:26:00,68.8,59.0,29.89,NNW,344,0.0,-999.0,72,-99.99,,,0.00,weatherlink.com 1.10,2013-06-08 03:26:00,
2013-06-07 22:41:00,67.8,59.0,29.89,NNW,344,0.0,-999.0,73,-99.99,,,0.00,weatherlink.com 1.10,2013-06-08 03:41:00,
2013-06-07 22:56:00,67.8,59.0,29.89,NNW,344,0.0,-999.0,74,-99.99,,,0.00,weatherlink.com 1.10,2013-06-08 03:56:00,
2013-06-07 23:11:00,67.1,59.0,29.90,NNW,344,0.0,-999.0,75,-99.99,,,0.00,weatherlink.com 1.10,2013-06-08 04:11:00,
2013-06-07 23:26:00,66.9,59.0,29.90,NNW,344,0.0,-999.0,75,-99.99,,,0.00,weatherlink.com 1.10,2013-06-08 04:26:00,
2013-06-07 23:41:00,66.9,59.0,29.91,NNW,344,0.0,-999.0,77,-99.99,,,0.00,weatherlink.com 1.10,2013-06-08 04:41:00,
2013-06-07 23:56:00,66.7,59.0,29.90,NNW,344,0.0,-999.0,77,-99.99,,,0.00,weatherlink.com 1.10,2013-06-08 04:56:00,